GFSGL_925_spd_000.txt.gz
Wind_Speed
17 16 11 11 14 16 17 20 22 23 24 25 27 28 29 28 29 27 29 31 32 31 32 34 40 42 40 36 37 29 22 24 18 26 23 26 37 38 42 42 44 44 42
18 14 12 13 14 16 19 20 22 23 24 27 28 29 30 28 28 30 32 32 27 28 35 37 43 43 36 35 28 28 28 26 28 15 21 22 41 38 46 42 39 42 42
17 14 13 14 14 16 19 21 22 23 26 28 29 27 30 32 32 32 31 30 29 30 32 40 34 37 32 27 25 25 26 33 25 19 23 21 41 41 39 38 34 36 38
17 15 15 14 15 18 20 21 23 23 25 26 28 29 30 33 30 31 32 27 30 31 32 36 40 36 31 24 26 28 29 20 22 20 27 24 39 37 40 36 30 32 31
15 14 15 15 16 18 20 22 24 24 24 26 30 30 28 30 28 26 29 30 33 30 30 35 37 37 42 30 28 25 26 21 16 14 13 22 32 34 35 34 33 31 30
15 15 16 15 15 18 21 23 22 24 23 26 27 28 29 28 27 30 31 33 32 30 27 35 39 38 37 38 32 28 27 26 20 15 18 20 32 36 35 36 35 32 14
17 15 11 14 15 18 19 19 21 22 25 26 27 26 28 30 28 30 31 31 32 31 28 31 36 36 35 33 28 19 31 29 29 23 18 25 32 39 41 36 36 37 27
12 11 12 13 15 16 16 19 22 24 24 25 27 27 27 29 28 29 31 31 28 32 33 33 29 38 39 36 32 23 18 27 27 25 27 22 36 42 47 42 42 34 29
10 12 13 13 12 14 17 21 23 24 25 26 25 26 28 29 28 29 28 28 27 32 33 29 33 35 36 35 34 27 22 24 28 35 29 24 35 44 47 43 38 32 25
12 14 13 10 13 15 19 22 23 23 24 25 25 24 26 25 25 27 27 26 26 27 24 29 30 34 38 38 38 28 22 25 33 31 29 29 30 47 51 46 44 36 33
15 11 10 11 13 16 21 21 22 21 23 26 22 25 21 22 29 30 29 29 26 20 26 29 34 38 42 44 36 25 19 24 25 26 23 24 35 42 45 45 44 44 40
12 11 12 12 16 17 20 22 20 23 21 21 22 18 23 25 24 28 28 27 27 29 28 30 34 41 47 36 29 22 12 25 22 23 15 32 36 40 43 42 42 40 41
9 10 13 15 16 18 20 21 21 18 18 17 17 17 22 24 24 25 26 27 31 31 30 32 38 38 36 31 28 22 11 24 25 15 23 30 38 40 40 38 36 36 33
10 12 13 14 17 19 18 18 20 19 10 14 16 19 23 25 25 23 25 28 29 32 33 34 33 32 30 27 25 21 10 18 23 20 29 34 36 40 38 39 35 37 34
9 12 14 15 16 16 17 18 20 13 9 18 21 21 22 23 22 28 30 30 30 33 37 28 24 28 30 29 28 27 22 18 22 18 30 35 35 38 36 38 38 34 26
10 12 13 15 16 15 17 20 19 14 20 24 24 23 23 25 24 27 28 29 35 35 29 17 20 24 26 25 25 25 22 12 22 24 31 37 37 36 37 37 36 33 32
11 12 13 15 16 19 18 13 15 20 20 19 21 20 21 26 23 25 27 32 32 31 13 15 18 21 25 26 25 23 21 21 22 31 35 39 39 35 41 35 36 33 32
11 13 14 16 15 12 10 16 18 17 15 20 20 20 22 22 21 24 26 28 21 19 17 13 18 21 25 27 27 25 24 20 14 32 37 39 41 39 37 35 35 34 33
11 14 15 14 13 15 14 18 18 19 17 17 21 19 17 19 20 20 21 21 21 18 19 16 16 22 25 28 29 27 23 19 14 33 36 36 39 41 35 35 35 37 38
12 14 13 11 11 14 15 17 17 16 14 17 16 16 21 20 17 18 18 21 22 20 21 20 19 24 25 29 31 31 26 23 5 35 34 33 38 40 38 35 35 37 33
8 8 13 14 14 13 15 15 11 17 17 16 18 20 18 21 17 18 17 20 22 23 21 22 18 24 25 28 29 29 28 24 18 23 30 34 34 35 36 36 35 35 32
9 11 12 13 12 10 13 15 14 16 16 15 18 18 19 18 17 17 17 19 23 23 22 22 18 24 26 27 29 29 27 25 19 26 31 35 35 33 33 34 35 31 32
8 11 11 8 14 13 14 13 14 15 16 15 15 15 17 15 17 15 16 19 21 22 21 20 18 22 28 32 32 28 28 27 29 14 38 37 36 34 33 34 36 35 33
6 6 11 11 12 13 13 12 14 15 15 15 15 16 17 17 16 16 16 18 22 21 20 16 17 19 25 31 34 36 39 37 28 14 41 41 37 37 35 35 35 37 38
5 8 10 11 13 11 11 13 14 14 15 14 14 15 15 16 16 19 16 16 19 16 16 15 15 18 24 29 31 35 37 39 22 5 41 40 40 39 38 38 37 32 35
6 8 11 10 12 13 13 12 13 15 14 13 13 14 17 13 17 19 15 16 16 15 14 14 15 16 22 27 31 33 34 38 14 3 34 39 42 38 39 38 39 36 38

GFSGL_925_spd_003.txt.gz
Wind_Speed
30 27 22 19 16 14 14 15 15 18 18 21 21 25 29 31 32 29 29 33 31 34 35 32 30 30 32 38 36 35 30 28 15 28 29 26 35 32 28 41 41 46 48
32 27 24 20 15 14 14 14 14 17 19 21 25 28 31 29 31 33 35 36 37 35 34 32 30 32 32 34 36 40 31 31 30 11 16 24 27 28 27 41 38 41 43
30 26 22 18 15 15 13 14 16 18 21 24 25 29 29 33 34 35 34 35 35 36 31 33 32 31 33 38 35 35 25 28 27 21 16 23 28 25 24 41 38 37 40
28 25 22 19 16 14 15 16 17 18 23 25 26 28 30 33 32 32 32 33 29 30 31 34 33 30 36 40 36 35 24 21 17 16 18 26 21 18 23 34 29 34 33
28 26 23 19 17 16 15 16 18 22 24 21 22 26 29 30 30 25 28 30 31 34 35 34 29 31 41 42 34 30 20 25 23 24 20 17 20 21 24 33 31 32 30
30 26 21 17 15 16 15 16 20 20 17 18 23 26 28 28 28 27 28 29 31 32 32 32 34 32 36 37 36 33 29 23 25 22 16 12 19 28 32 34 30 29 10
29 24 20 17 16 13 13 16 13 13 18 22 23 25 28 29 28 27 28 29 31 33 30 31 35 33 35 37 35 34 31 18 27 28 19 17 11 15 32 32 33 34 25
26 22 18 15 12 11 12 9 11 16 20 22 23 26 27 28 28 28 28 27 28 32 30 33 31 31 39 40 36 34 33 27 33 29 29 22 18 29 35 41 39 33 26
23 20 15 11 11 10 8 11 16 19 21 21 23 26 27 26 28 20 26 28 28 30 31 25 25 30 40 37 36 32 30 28 19 36 30 22 18 16 35 36 34 32 20
19 14 11 13 12 9 11 14 17 18 19 19 24 25 22 25 20 27 26 25 24 27 24 26 27 29 39 42 38 32 25 23 14 28 35 31 23 18 39 40 40 30 30
15 13 14 13 10 10 13 16 18 18 17 21 23 23 23 17 25 26 25 27 23 23 23 29 30 34 41 44 42 32 21 24 19 26 28 25 27 23 40 36 41 42 39
15 15 14 12 11 12 15 17 18 18 18 16 17 17 19 24 26 23 24 24 23 25 25 30 33 36 39 41 37 33 32 23 20 26 25 25 27 21 36 31 40 39 38
16 15 13 11 12 13 14 17 20 17 15 14 11 17 22 23 24 22 22 22 24 27 28 31 35 35 34 34 34 35 29 21 25 25 23 24 26 28 36 30 36 34 33
15 12 10 10 10 12 15 16 15 17 16 9 13 18 21 23 21 23 21 24 23 26 27 32 32 26 32 29 30 29 28 24 26 24 23 22 27 34 34 33 34 32 29
12 10 8 9 10 11 12 15 15 18 16 10 18 20 18 21 22 22 22 23 25 29 33 28 22 26 29 29 33 31 27 22 15 24 22 20 28 34 32 35 33 35 26
12 10 9 9 9 9 11 18 20 12 10 19 22 21 23 23 25 24 24 24 28 29 27 20 17 19 26 29 27 29 27 22 18 23 21 22 31 36 32 33 36 36 29
12 9 8 8 9 12 16 14 8 15 19 18 19 20 21 24 24 25 17 22 24 24 19 19 20 17 24 29 27 25 25 26 22 15 21 25 29 36 35 34 35 34 28
8 6 5 6 9 11 8 10 12 14 15 21 20 18 21 20 20 23 19 20 23 25 22 19 20 19 22 29 29 29 27 25 18 13 22 23 33 33 33 34 34 30 30
5 2 5 9 10 11 11 12 14 15 17 19 18 25 21 21 19 19 16 15 19 21 22 20 21 18 21 30 28 29 27 24 20 14 24 29 28 33 34 35 33 34 35
1 3 2 3 8 12 13 13 14 15 9 14 18 21 21 19 18 19 18 16 19 23 23 22 22 20 22 29 30 30 29 24 21 11 30 35 32 36 35 36 35 33 33
5 1 4 7 9 13 14 8 11 15 11 15 17 19 15 16 17 19 19 17 19 24 23 24 24 21 24 27 30 28 28 24 23 24 26 40 38 36 36 36 35 35 30
1 2 4 8 10 6 11 11 13 12 11 13 17 16 15 15 17 17 18 16 19 19 23 25 25 21 22 27 27 28 27 28 26 26 11 36 39 38 37 36 36 35 34
2 2 3 4 9 9 12 12 12 12 13 15 15 14 16 17 17 17 18 18 18 17 20 21 21 21 21 26 26 26 26 27 30 30 17 35 36 37 37 38 38 35 35
1 1 3 7 8 10 11 10 12 13 13 12 14 16 15 16 17 18 18 19 17 18 17 18 17 19 22 26 28 30 33 36 36 22 6 27 35 36 35 35 36 38 37
3 2 4 7 7 9 10 10 11 13 13 13 13 14 15 16 17 18 21 18 17 18 17 16 17 19 21 25 30 32 36 37 33 10 8 20 33 35 36 34 35 36 38
1 2 5 6 6 10 10 11 11 12 11 11 12 16 15 15 17 21 19 16 14 16 16 16 18 19 21 24 30 31 34 39 22 8 11 32 37 33 35 34 36 34 38

GFSGL_925_spd_009.txt.gz
Wind_Speed
42 43 41 39 34 28 24 22 20 18 17 15 14 13 14 15 17 18 20 21 25 25 25 27 28 27 27 28 30 32 28 28 18 37 35 38 35 32 35 29 27 30 27
43 42 42 40 35 31 27 25 22 19 17 14 13 14 14 16 17 19 19 22 23 26 25 25 28 27 29 31 32 31 29 31 31 23 35 40 35 33 30 30 26 27 28
40 41 41 40 36 33 29 27 23 19 16 14 13 14 14 16 16 17 20 21 22 24 26 28 28 29 31 32 32 30 29 31 29 29 35 34 30 26 29 29 25 31 35
38 39 40 41 37 35 31 28 23 19 16 14 13 14 15 13 16 17 19 20 23 24 26 28 28 28 30 29 32 30 27 28 34 32 33 25 20 22 23 19 18 22 29
36 37 40 42 38 35 32 28 22 18 15 14 13 13 12 15 15 16 19 21 23 25 25 22 24 24 23 26 28 29 29 33 33 34 29 13 17 11 13 14 9 16 23
35 35 38 39 38 37 33 28 22 18 15 14 12 11 13 14 15 17 17 20 21 14 23 25 28 26 25 23 27 30 33 35 36 31 25 11 15 16 15 13 9 14 7
34 34 38 38 38 36 33 27 22 18 14 13 11 12 12 14 15 15 17 19 16 21 26 28 29 25 24 26 29 31 35 36 38 36 22 15 16 20 15 9 18 17 14
32 33 36 37 37 36 31 26 20 17 15 13 12 11 12 14 15 16 16 18 20 26 26 26 26 26 24 26 31 32 35 36 34 33 29 20 21 18 12 15 14 23 29
31 33 36 38 37 35 29 24 20 17 15 12 11 12 14 14 15 15 16 19 24 25 24 24 25 25 26 27 29 30 30 34 34 34 34 21 18 17 9 11 10 17 16
32 35 38 39 37 34 28 23 20 17 13 10 12 14 14 15 15 13 17 18 19 21 23 24 25 24 27 27 29 24 29 30 32 35 35 10 18 19 17 16 10 19 23
33 36 38 37 35 30 25 22 19 14 11 12 13 14 15 15 14 14 16 16 17 18 19 21 24 26 29 28 27 25 28 33 29 27 22 17 19 18 16 14 19 28 26
35 36 35 34 30 26 23 20 15 12 12 12 12 15 15 15 11 17 14 14 15 17 22 24 27 29 30 28 26 25 29 28 24 21 19 15 21 19 18 15 18 25 25
33 34 34 30 25 23 22 18 14 12 11 11 10 14 17 12 13 18 14 14 17 19 21 21 27 27 26 27 21 25 27 25 23 20 18 18 21 20 22 18 16 29 25
32 33 29 25 23 21 18 14 12 11 9 9 11 14 13 11 15 17 15 18 21 20 17 20 24 25 24 22 23 19 24 23 23 21 19 24 16 22 20 22 20 29 29
30 28 25 24 22 18 15 13 12 9 8 9 12 10 10 13 14 13 16 18 18 12 16 20 24 25 20 21 21 21 26 23 24 22 21 20 20 21 20 26 24 31 22
23 23 23 21 17 15 13 10 8 7 7 6 8 10 10 10 10 14 14 16 16 15 13 17 20 21 18 19 20 23 26 25 24 24 22 20 23 24 23 29 27 30 26
21 21 20 18 17 15 12 9 7 5 7 7 8 6 7 8 13 14 14 15 14 10 10 15 19 21 20 20 18 19 26 27 29 25 24 20 22 24 27 32 29 29 28
22 21 21 20 17 13 10 8 7 7 6 7 7 8 8 10 11 12 12 13 14 12 12 15 18 21 21 19 20 20 27 28 29 28 25 18 14 23 22 30 29 30 29
20 18 17 15 13 9 8 7 7 7 7 7 6 8 9 11 11 9 11 11 14 15 14 17 20 19 22 20 18 20 25 26 29 26 22 20 11 23 29 25 33 34 33
18 17 16 13 10 9 6 6 6 7 7 7 10 12 11 11 11 13 13 14 16 16 15 16 20 20 23 20 17 19 24 25 26 26 22 22 23 22 30 33 31 32 31
19 15 13 11 8 6 6 4 3 4 6 7 8 11 11 12 12 9 11 13 16 18 16 17 19 21 23 20 19 19 23 25 26 27 27 24 24 17 21 35 36 35 32
17 15 11 9 7 8 5 3 3 3 5 6 7 10 10 8 8 10 12 14 14 16 15 18 21 20 22 19 20 19 24 27 30 28 28 26 23 15 30 31 35 34 34
15 14 11 10 8 5 3 1 3 4 6 6 8 9 11 11 8 9 12 14 17 17 16 15 20 21 19 19 20 18 24 27 31 31 31 24 21 13 34 34 37 34 35
15 13 11 8 6 4 2 2 3 4 5 7 9 10 10 9 8 8 11 15 16 17 15 16 19 20 21 21 21 20 27 31 33 35 29 26 19 12 24 35 37 36 33
15 12 9 6 4 2 2 2 3 4 7 8 9 9 10 10 9 10 11 14 16 16 17 17 19 20 22 22 21 22 28 30 30 34 26 19 13 12 23 30 32 33 35
12 10 8 6 4 2 1 2 3 5 7 7 8 11 8 9 9 10 12 13 16 17 16 17 18 20 21 21 20 25 28 29 32 32 24 14 11 13 28 31 35 33 37

GFSGL_925_spd_012.txt.gz
Wind_Speed
40 41 41 43 41 37 33 29 27 24 22 21 20 18 17 15 13 14 14 15 16 18 20 21 22 21 24 24 25 27 28 25 16 37 33 36 35 33 35 35 35 35 31
39 40 42 44 43 40 35 31 28 25 22 20 19 18 16 15 14 14 15 15 18 20 20 20 22 23 25 26 28 30 28 29 27 30 37 36 32 33 39 36 36 32 27
36 39 39 42 44 42 38 33 29 25 22 20 20 18 16 14 14 14 13 16 17 17 19 22 23 25 25 24 27 29 29 29 28 33 31 34 42 38 39 33 33 31 25
35 37 39 43 45 43 39 35 30 27 23 22 20 17 15 14 13 12 13 15 16 18 20 22 19 20 23 25 28 31 30 28 25 27 33 32 32 34 23 20 23 29 26
35 36 37 40 43 42 39 36 31 28 24 22 19 17 15 13 12 12 11 15 17 18 17 14 20 23 23 26 26 27 26 26 28 27 29 30 30 22 13 19 19 19 24
34 35 33 39 42 43 40 37 32 29 25 22 19 17 14 12 11 10 12 15 16 16 15 20 25 28 24 23 25 27 28 31 30 29 28 27 34 14 18 20 18 12 6
31 32 35 39 41 43 41 38 34 30 26 23 18 16 14 12 9 10 12 14 15 17 20 24 27 25 23 26 28 27 29 32 33 35 30 32 29 16 19 16 17 14 8
30 30 34 37 37 40 40 38 35 31 27 22 18 15 12 11 9 10 12 13 14 19 22 21 22 24 23 24 28 28 31 33 27 33 30 32 33 17 19 18 22 15 16
33 34 34 37 37 39 38 39 35 30 25 21 18 14 12 10 10 11 10 11 17 18 20 20 20 22 23 25 28 29 31 25 33 31 33 31 30 10 13 13 14 10 5
34 36 38 40 41 39 40 39 34 29 24 20 16 13 11 11 10 11 8 13 17 17 18 20 17 19 24 27 28 27 26 30 30 34 39 36 27 6 12 12 14 16 10
31 33 35 38 41 42 40 38 32 26 21 18 15 12 11 10 10 10 9 14 15 16 17 21 19 20 24 27 26 29 27 31 31 25 27 25 24 11 13 12 13 16 14
33 35 35 37 34 39 39 34 28 25 21 16 13 12 10 9 9 9 10 14 13 15 18 20 19 22 24 24 25 23 25 29 27 22 23 21 16 8 11 11 11 11 16
32 32 35 35 36 38 36 31 26 23 19 15 13 12 10 8 8 8 12 13 12 14 17 16 16 20 21 21 22 22 18 25 25 25 21 24 20 16 11 7 5 11 27
28 29 33 35 35 35 32 30 26 22 17 15 13 11 10 8 7 10 12 10 13 14 15 13 15 18 18 19 21 21 19 22 23 22 23 25 25 17 16 10 12 22 29
27 28 28 30 33 30 28 26 22 18 17 16 13 11 9 7 8 7 10 14 15 14 14 14 16 18 21 23 22 20 19 22 21 20 24 21 19 21 14 14 17 23 20
25 24 25 25 26 27 23 16 13 12 13 9 8 7 6 7 7 9 12 12 12 12 14 11 15 16 18 20 19 19 17 21 22 23 22 22 19 18 17 19 22 20 27
23 22 20 21 20 21 21 20 17 9 9 9 8 7 6 5 6 10 11 10 9 10 9 12 15 15 17 19 20 19 17 22 24 20 22 22 20 21 19 20 24 25 25
18 17 19 22 23 20 19 16 13 13 13 9 6 5 4 4 7 9 8 7 8 9 11 12 15 16 17 19 21 17 15 21 22 21 22 21 21 23 21 18 24 26 27
15 15 17 18 16 16 15 12 11 11 10 8 6 4 2 5 7 7 6 6 8 12 13 13 14 17 19 19 22 20 16 20 25 23 22 22 21 21 19 22 28 30 30
14 21 21 19 17 15 12 11 10 8 8 8 7 4 3 4 5 6 6 6 9 12 14 14 13 17 19 20 20 19 18 20 24 24 25 24 22 18 13 24 31 34 30
22 19 19 17 14 12 10 9 8 7 5 4 2 2 4 5 9 8 6 8 10 13 14 16 15 15 17 19 19 18 16 19 24 25 24 26 23 21 14 22 35 36 32
22 19 16 13 11 11 11 10 8 5 4 3 2 3 4 4 5 6 7 8 9 13 14 15 17 16 17 18 18 19 18 18 23 26 26 24 21 19 14 8 34 33 31
19 18 15 14 14 12 9 6 4 4 2 1 2 3 6 6 6 6 7 9 12 14 14 15 16 17 17 17 18 17 18 21 28 29 29 24 19 18 15 14 35 34 34
18 18 17 15 12 10 7 5 3 2 1 0 2 4 5 6 7 7 9 11 12 14 13 15 15 15 16 18 19 18 16 21 28 31 31 28 21 18 17 16 33 34 35
17 17 15 12 11 8 5 4 3 3 1 1 3 4 6 5 6 7 8 10 12 13 16 16 16 15 16 19 19 16 18 25 27 27 32 29 25 16 17 14 33 34 32
18 16 14 11 8 6 5 3 1 1 3 3 4 6 6 6 8 10 9 10 10 13 14 17 16 15 17 18 18 16 23 26 29 30 33 24 17 14 11 17 33 34 36

GFSGL_925_spd_015.txt.gz
Wind_Speed
30 32 34 36 36 37 42 38 35 34 33 31 30 29 25 22 20 18 16 15 16 16 16 18 20 19 18 18 18 18 19 21 18 33 31 32 34 33 32 35 36 36 35
28 30 32 34 39 39 39 39 37 36 34 33 30 29 25 22 20 18 17 15 16 15 17 17 18 16 17 18 18 20 20 22 25 29 31 32 33 35 32 36 39 40 38
25 29 29 31 36 37 38 39 38 36 34 32 30 29 26 23 20 18 16 16 15 17 17 17 18 17 19 17 18 21 22 24 26 30 33 34 33 34 36 37 37 38 36
24 28 31 33 35 36 40 41 39 37 35 32 30 28 25 22 20 18 16 15 15 16 17 19 19 17 16 19 21 24 24 25 26 29 30 32 33 34 35 35 34 27 25
24 27 30 31 32 35 39 41 39 36 34 32 29 27 24 21 20 17 15 15 14 15 17 17 18 16 18 24 26 24 24 24 26 27 28 30 31 31 23 35 21 18 21
24 28 28 29 33 35 37 39 40 38 34 33 29 27 24 22 19 16 14 13 14 15 15 16 16 20 21 20 21 24 27 27 26 27 28 29 31 33 32 32 17 15 7
24 27 29 31 33 35 37 38 39 40 35 32 29 26 24 21 18 15 14 13 13 14 14 14 18 18 18 19 21 22 24 27 29 34 33 33 37 38 34 34 19 18 19
26 28 31 33 34 34 37 37 36 36 37 32 29 26 23 21 17 15 13 13 13 15 16 16 15 18 18 19 23 23 25 29 32 32 32 38 37 43 39 34 22 15 15
29 31 33 35 35 35 37 37 36 35 33 32 30 26 23 20 17 15 13 12 14 15 16 16 16 16 18 20 23 24 26 29 30 31 31 37 37 39 30 16 13 13 7
30 31 33 35 36 36 36 36 35 35 34 31 26 25 23 18 16 15 13 12 13 15 13 14 14 17 18 22 24 24 25 31 30 30 33 36 36 31 7 9 13 11 6
30 31 31 33 34 35 34 34 36 32 31 27 24 24 20 17 16 15 14 13 13 14 13 13 14 17 18 22 21 22 23 28 28 28 28 28 29 24 4 4 4 7 6
27 29 30 32 32 33 37 33 34 32 29 24 21 17 18 16 15 14 14 15 13 15 14 14 16 16 18 21 21 20 23 20 24 24 24 23 23 23 16 7 7 10 11
22 25 29 30 30 32 34 33 30 30 26 21 18 16 14 14 14 13 13 13 13 13 12 14 16 15 18 18 18 20 18 16 21 21 22 21 23 21 16 4 6 4 8
21 23 26 29 27 29 29 32 30 26 22 19 15 14 12 13 12 13 13 12 10 10 11 12 13 14 18 18 16 14 16 15 21 19 20 24 23 22 12 8 2 18 14
22 24 25 30 27 27 27 29 28 26 31 23 21 18 13 11 12 11 10 7 8 9 10 11 12 10 13 15 14 14 18 14 20 24 19 21 23 20 20 3 8 13 11
19 22 24 28 27 27 27 20 21 25 20 16 15 15 12 9 9 8 9 8 10 10 10 10 10 9 12 13 14 15 17 14 18 23 21 19 19 18 19 5 13 13 18
18 22 25 27 26 26 24 23 18 14 14 13 12 12 9 8 8 8 8 9 9 8 6 8 9 8 10 13 13 14 15 17 18 18 21 18 17 19 18 8 16 15 19
22 23 24 25 24 24 23 20 20 17 13 12 10 10 9 8 7 6 6 5 6 6 6 7 7 7 9 13 13 15 15 15 16 18 20 19 17 17 15 8 18 16 20
20 22 25 23 19 18 16 15 17 18 15 11 11 9 9 8 7 6 6 6 6 7 6 6 7 8 10 14 14 19 14 14 15 18 19 19 19 16 16 13 22 23 23
18 18 20 17 13 14 18 19 18 15 11 10 10 9 7 6 6 6 7 6 6 6 6 7 8 10 11 14 16 17 14 15 13 17 19 20 20 16 16 15 21 28 28
15 15 17 19 19 19 20 14 11 11 10 10 8 9 8 7 7 7 7 6 5 6 6 8 9 10 12 13 13 11 14 16 14 16 19 21 19 19 16 13 16 27 27
16 18 22 22 20 17 14 11 12 11 10 10 8 7 5 5 6 6 7 6 6 6 8 9 10 11 11 13 14 12 14 17 17 16 18 20 23 19 16 15 13 30 25
17 19 19 17 15 16 13 11 9 8 8 7 6 4 3 4 5 5 6 6 6 8 9 10 9 11 12 13 15 15 11 14 17 22 24 23 22 19 14 13 10 30 29
23 20 17 15 14 12 11 9 7 7 7 6 4 2 2 3 4 4 4 5 6 9 11 11 11 12 13 14 16 17 14 13 17 26 27 28 26 22 17 13 15 27 32
18 18 16 13 13 10 8 7 7 7 6 5 4 2 1 2 3 3 4 5 7 9 9 10 12 13 14 14 15 15 13 15 21 24 27 29 31 24 18 17 18 26 32
18 17 15 13 12 11 10 8 7 5 4 5 3 2 1 2 3 4 7 7 8 8 10 11 15 11 11 13 14 13 13 18 23 25 25 30 24 21 18 17 21 25 33

GFSGL_925_spd_021.txt.gz
Wind_Speed
23 25 23 23 27 29 32 37 32 32 32 34 36 35 32 31 29 26 22 20 20 19 16 15 14 13 14 15 15 16 17 18 15 20 23 24 27 28 28 27 28 29 30
27 25 25 21 22 26 30 33 32 31 31 33 35 35 33 31 29 28 25 22 21 20 18 16 15 14 15 15 16 17 18 20 21 21 23 23 24 30 28 30 32 31 26
27 27 26 22 21 24 28 30 33 32 32 33 34 35 34 33 30 28 26 23 21 20 18 17 15 15 15 15 16 17 17 18 21 23 25 23 25 27 27 28 32 32 29
30 25 26 23 22 21 24 28 31 32 32 33 35 35 34 33 30 28 26 23 20 19 17 16 15 15 15 15 16 17 18 19 21 23 22 25 24 27 28 28 27 27 29
28 29 25 26 22 22 23 26 29 32 33 34 34 34 33 32 30 29 26 23 20 18 16 15 15 14 14 14 15 17 18 19 20 22 22 25 24 25 23 26 28 33 34
25 25 27 26 25 23 23 25 28 29 32 33 33 32 33 30 31 30 26 22 19 17 16 15 13 13 15 16 16 18 19 20 22 23 23 24 29 29 31 30 31 30 14
24 25 26 24 24 24 24 25 26 28 30 31 31 31 31 29 32 32 28 20 18 17 15 13 12 13 10 13 14 17 19 20 23 27 29 29 30 30 33 37 35 32 30
25 24 25 25 21 24 22 24 24 26 30 30 30 30 29 27 31 31 30 20 17 14 13 12 12 12 12 11 12 16 20 22 23 25 27 28 32 37 38 37 36 39 39
26 24 25 27 24 25 23 24 25 26 29 28 29 29 28 26 31 30 26 21 16 14 13 12 12 12 11 10 12 18 21 22 23 23 28 34 34 39 40 37 32 26 10
27 32 32 31 26 26 25 26 26 26 28 28 28 29 28 26 30 31 28 18 15 13 12 11 13 13 11 10 12 17 20 22 24 30 30 29 36 36 37 32 30 21 10
34 31 33 33 28 28 25 28 26 26 28 29 29 29 29 26 29 30 28 17 14 12 10 9 9 7 8 9 13 16 19 24 27 24 24 32 32 33 34 33 31 22 13
34 36 35 32 26 25 28 25 27 27 27 28 28 26 26 24 26 27 24 20 12 10 8 7 7 5 5 9 14 16 19 22 19 21 23 28 31 33 37 38 35 28 21
34 36 34 29 27 26 27 27 26 28 27 27 27 25 25 23 25 24 21 18 14 9 8 7 7 8 11 12 12 15 18 16 16 20 20 27 30 32 31 32 33 19 10
34 33 33 22 17 19 23 24 26 27 27 26 26 25 25 23 22 21 19 17 13 10 9 9 8 7 10 12 12 13 13 14 14 19 19 26 29 30 29 28 27 14 9
31 29 29 14 13 19 19 24 24 27 29 28 27 28 27 22 22 23 20 17 13 11 7 5 6 5 10 8 9 13 13 13 14 18 18 25 27 27 28 29 26 11 12
24 22 18 10 12 16 19 21 17 26 28 29 29 29 24 21 24 23 19 16 13 10 6 5 4 7 9 7 8 12 13 13 14 19 16 21 23 23 26 29 28 11 12
20 20 13 11 9 12 23 18 16 28 31 32 31 31 28 26 22 20 16 13 10 8 6 4 5 7 6 6 8 10 12 12 14 18 17 20 23 23 25 24 24 9 13
17 11 6 6 9 15 20 28 22 25 25 25 27 27 24 22 20 17 15 13 9 7 6 5 6 5 5 5 7 9 10 13 12 15 14 20 21 22 22 23 21 19 8
7 3 9 7 11 20 23 24 26 26 26 26 25 22 20 18 17 15 12 8 7 9 8 5 6 5 5 6 7 8 10 10 11 14 11 19 19 22 21 20 21 25 3
3 8 11 8 16 22 25 24 24 24 23 21 18 18 17 17 13 12 9 7 6 6 6 6 6 5 6 7 7 8 9 9 9 11 11 17 18 20 20 20 19 17 13
11 14 16 16 18 18 21 22 20 20 19 17 16 16 16 14 12 10 9 7 6 6 7 7 6 5 5 7 7 8 9 9 9 12 12 14 17 18 20 19 18 18 16
13 14 20 18 18 20 20 17 17 18 16 15 15 15 14 9 8 6 6 7 7 5 4 4 3 4 5 6 7 8 9 9 10 10 12 14 21 20 20 19 20 17 15
17 18 17 17 18 18 17 16 14 14 13 13 14 12 9 7 6 6 7 7 7 6 5 4 4 4 5 6 7 8 9 10 9 11 10 17 20 19 20 20 19 17 15
15 16 15 16 14 13 13 13 13 13 12 11 9 8 7 6 5 6 6 7 6 5 4 5 5 5 6 7 7 8 8 9 10 11 13 17 19 22 21 20 18 15 15
16 15 17 15 13 13 12 12 11 10 10 10 8 7 6 5 5 5 5 4 3 4 4 4 5 5 7 8 7 7 6 9 12 13 13 15 19 24 23 20 19 18 14
16 14 13 13 12 11 11 11 11 10 10 9 8 7 6 6 6 5 3 3 3 4 2 3 4 6 5 5 4 8 11 11 11 12 14 17 20 21 20 18 16 17 16

GFSGL_925_spd_024.txt.gz
Wind_Speed
27 27 27 32 35 36 32 28 34 35 33 39 42 42 42 40 41 38 36 32 31 27 24 23 21 19 17 15 12 13 15 15 10 18 23 23 23 26 24 25 32 28 30
20 23 28 30 31 35 31 28 26 32 34 37 41 41 40 40 42 41 39 33 33 30 28 23 21 18 17 16 16 17 19 20 21 15 19 24 25 27 25 27 30 31 27
28 26 23 25 26 30 31 29 29 29 32 34 41 39 37 37 39 39 39 34 33 30 27 26 22 19 18 16 16 17 17 16 18 20 20 22 22 27 32 27 30 33 31
32 31 21 20 21 29 34 28 32 29 31 32 38 38 37 37 37 37 36 33 32 29 27 24 22 21 17 15 14 14 12 12 14 18 21 20 25 23 29 28 27 26 26
32 28 27 24 18 25 31 30 31 32 26 30 35 36 36 36 36 36 36 36 30 28 25 23 22 18 14 13 12 13 15 16 18 20 18 20 22 22 24 25 28 30 31
32 32 30 28 18 17 28 33 23 36 31 25 33 35 35 33 34 37 37 35 31 27 26 22 16 14 14 13 14 13 15 18 19 20 20 20 25 27 28 24 24 26 17
32 33 35 26 22 20 22 25 28 33 29 23 33 35 34 33 33 37 36 34 30 25 23 21 17 13 13 13 10 12 15 15 17 22 23 25 27 24 29 32 32 30 31
29 33 36 21 21 25 23 23 27 33 31 24 31 34 34 35 34 35 34 31 27 24 21 17 15 13 8 5 9 13 15 16 20 23 26 26 28 33 34 34 35 37 37
32 34 24 26 29 27 25 23 25 28 33 24 29 34 34 34 36 36 33 29 26 23 20 16 13 10 8 7 9 13 14 17 18 21 26 29 29 33 36 37 31 24 18
32 24 27 29 32 32 29 26 28 28 31 24 26 34 35 34 37 37 36 29 25 22 17 15 12 12 11 8 11 11 14 18 22 30 30 28 34 36 34 30 28 23 22
32 29 29 29 36 37 32 27 25 26 26 27 26 31 33 37 37 38 34 29 26 21 18 15 13 11 12 9 8 9 14 17 24 26 23 32 31 32 33 33 32 28 24
29 28 29 33 36 36 31 27 24 20 22 27 25 27 30 37 39 36 32 28 24 23 18 13 9 12 12 9 7 9 11 16 21 16 25 25 28 33 36 40 40 39 36
28 29 29 33 35 36 32 24 20 24 23 25 24 25 24 32 34 35 34 22 22 20 16 14 13 10 6 7 6 6 11 13 17 16 22 22 28 30 35 34 44 37 30
32 29 30 31 34 34 28 20 25 23 25 23 22 23 25 27 29 31 28 23 19 20 14 11 6 4 4 5 6 5 7 11 14 16 22 25 28 27 30 32 34 35 12
31 28 26 26 27 21 16 18 22 26 21 24 25 29 27 26 29 33 31 28 22 18 14 10 11 9 5 5 2 3 7 11 10 17 22 24 26 26 28 33 32 23 14
28 23 21 23 22 17 17 8 13 23 25 21 30 32 28 32 33 32 30 23 20 20 18 13 9 7 5 4 1 4 7 10 12 15 19 22 23 24 28 31 29 22 12
28 18 21 21 17 13 18 11 11 11 17 32 35 33 34 35 32 31 29 26 23 20 17 11 11 8 5 3 3 5 6 10 12 12 15 22 22 22 24 24 25 22 11
22 19 18 17 11 13 9 15 13 16 18 25 36 36 39 40 36 31 27 22 17 13 13 11 10 8 5 4 3 5 7 10 10 10 11 19 21 20 22 22 23 21 15
14 15 10 13 12 13 11 15 19 23 22 27 30 31 34 32 28 24 21 20 18 14 13 10 9 8 6 4 3 3 5 9 10 11 11 17 20 19 20 21 21 21 21
8 7 5 11 7 14 24 22 24 23 22 22 22 24 27 28 23 21 18 14 12 16 15 13 10 8 5 3 1 2 4 7 7 11 12 14 20 18 19 20 19 18 17
4 6 9 20 18 19 22 22 22 21 18 18 18 20 21 22 20 19 17 12 10 14 13 11 10 8 5 2 1 1 3 6 6 10 13 13 19 19 19 20 20 18 16
11 11 13 22 23 24 24 24 25 24 22 20 19 21 19 20 19 18 16 14 13 13 12 10 9 7 5 2 1 2 2 5 7 7 8 11 19 20 19 20 20 19 17
15 13 16 21 21 23 23 21 21 21 22 19 16 17 16 18 17 16 16 15 13 11 10 8 6 5 3 2 1 3 2 2 6 7 8 11 17 20 19 17 19 17 16
18 15 15 17 17 17 17 17 19 20 20 18 15 14 14 16 15 13 12 13 13 11 9 6 4 3 3 2 3 3 1 1 4 7 9 11 15 18 20 18 16 15 17
21 18 16 18 18 17 18 18 18 18 18 19 18 18 16 15 13 12 12 12 12 10 7 5 4 3 3 2 1 2 3 4 5 5 8 12 15 17 19 16 14 15 15
22 21 20 20 20 20 19 19 19 18 16 17 16 13 12 11 11 10 9 8 8 7 6 6 3 3 2 0 1 5 6 5 4 6 9 12 14 16 17 16 14 13 14

GFSGL_925_spd_027.txt.gz
Wind_Speed
34 26 30 35 33 29 28 29 31 35 36 30 41 44 43 45 46 46 45 45 44 41 37 34 31 27 25 21 19 18 16 15 9 16 22 22 22 18 23 21 25 25 30
26 31 32 37 37 26 27 34 36 34 37 23 30 38 40 44 45 44 44 41 45 42 39 35 33 28 25 22 20 18 16 16 18 18 23 22 21 19 21 22 29 26 25
31 35 33 32 36 27 26 29 34 35 31 31 24 35 39 41 42 43 45 39 44 43 40 36 33 29 26 24 20 18 17 18 20 18 15 15 20 22 26 25 27 29 29
33 32 32 35 30 34 28 28 30 29 29 31 25 36 41 41 43 41 41 37 40 41 40 37 32 31 27 23 19 17 15 14 11 10 15 20 24 25 26 26 28 28 29
31 33 34 33 33 31 33 26 26 25 29 28 28 37 41 41 42 39 38 39 39 36 38 36 33 29 23 21 19 15 13 13 14 15 19 21 20 20 21 24 24 28 27
34 32 32 31 29 33 30 26 29 27 27 24 24 30 35 37 40 43 41 38 39 38 37 33 30 26 22 18 15 14 14 14 16 18 20 16 21 23 25 24 21 21 15
33 36 29 30 33 27 18 24 28 29 25 28 27 25 33 37 39 40 40 37 40 37 37 34 29 27 22 18 17 15 15 14 13 15 19 23 25 28 26 26 27 28 31
31 28 34 32 27 21 22 26 29 30 27 21 28 29 31 35 38 38 37 39 39 37 36 32 28 21 18 18 18 16 14 15 14 15 20 24 27 29 30 31 33 34 38
26 33 29 27 29 23 23 28 33 31 29 17 27 30 27 34 39 38 36 39 38 35 32 28 25 21 17 15 13 12 12 13 14 15 19 25 26 28 31 32 31 27 20
31 25 31 34 28 25 26 30 35 32 30 17 27 28 25 34 38 39 39 37 36 32 28 24 23 22 17 14 12 12 11 13 15 18 25 26 28 32 29 29 32 27 26
28 29 29 35 27 28 31 30 34 32 29 17 22 27 23 35 39 41 40 38 37 32 29 26 23 18 16 14 11 9 11 12 15 20 25 25 32 28 31 33 34 32 32
27 27 28 26 31 29 31 33 35 30 26 18 18 20 20 34 40 42 42 37 37 34 30 26 22 19 17 14 9 9 9 10 14 19 20 26 27 31 36 37 41 42 37
23 23 26 32 28 31 26 31 31 31 22 15 15 13 20 28 34 38 37 33 35 30 26 23 21 20 15 11 8 6 7 8 12 16 20 23 25 33 34 35 38 28 23
26 27 32 31 27 28 25 29 26 29 17 16 16 11 21 24 29 31 28 29 29 26 26 24 21 17 12 7 5 4 4 6 9 14 20 24 28 28 28 31 30 29 15
26 27 27 23 25 24 24 26 26 23 19 18 21 17 24 24 29 35 34 32 36 34 28 22 17 15 10 6 4 3 2 6 9 16 20 23 25 25 27 30 28 21 17
27 24 22 25 22 21 22 24 25 19 20 22 27 18 32 39 38 37 33 34 33 29 24 21 17 14 10 7 7 5 5 7 10 13 15 23 21 22 26 27 26 20 15
23 23 22 28 19 17 19 15 14 10 17 17 17 20 30 34 38 37 34 30 26 24 21 20 18 14 9 9 7 6 5 6 8 11 13 22 22 21 22 24 25 20 15
23 25 26 21 17 18 15 17 17 10 12 9 19 29 37 34 36 35 33 29 23 22 23 20 16 12 12 11 7 6 4 5 8 11 14 20 22 20 21 23 23 21 16
19 22 18 15 16 17 16 16 13 14 13 23 25 27 31 37 34 34 32 26 22 22 20 18 15 14 13 10 6 5 4 7 6 11 14 19 24 20 19 21 21 21 18
19 11 14 14 11 11 8 18 19 22 25 27 26 25 29 35 27 22 25 24 24 23 19 19 16 14 13 9 5 4 5 6 6 10 12 16 22 21 19 20 20 19 18
5 7 8 14 19 19 20 20 23 25 26 22 21 22 22 23 21 22 24 22 23 23 21 19 16 14 12 7 4 3 4 6 5 8 10 13 20 22 20 19 18 19 17
12 12 14 18 18 20 21 22 25 27 25 25 23 20 19 21 21 21 18 18 23 22 19 18 15 13 10 8 4 2 2 5 5 7 8 11 16 19 20 19 18 19 18
17 17 19 20 22 23 22 23 24 24 23 20 20 19 19 19 19 19 20 21 20 19 18 18 15 12 9 6 3 0 2 4 4 5 7 10 13 16 19 17 17 16 17
19 19 20 21 22 22 22 22 23 23 23 22 18 19 20 20 21 21 21 20 20 18 16 13 11 10 8 4 3 2 2 2 5 4 3 9 12 14 18 17 16 14 14
23 21 19 18 18 18 20 20 19 18 18 17 17 20 20 19 19 21 21 20 18 15 14 11 10 10 6 5 6 4 0 2 3 3 5 8 11 13 12 15 13 14 13
23 22 20 19 19 18 18 18 18 19 18 19 21 21 20 19 19 20 19 17 15 14 12 10 7 9 7 6 6 3 1 2 2 5 6 8 11 10 12 13 14 14 12

GFSGL_925_spd_030.txt.gz
Wind_Speed
24 24 26 34 37 33 34 39 28 29 33 32 31 32 30 31 38 38 39 40 43 40 40 42 42 37 34 31 26 23 21 20 9 11 15 17 19 17 17 17 18 21 24
22 24 32 31 37 33 36 35 31 30 30 30 31 29 26 25 32 36 37 35 43 37 41 41 42 37 32 31 28 26 24 22 19 13 17 18 19 17 16 19 22 25 24
30 31 32 29 33 36 37 32 32 30 32 26 26 25 27 26 26 34 33 35 40 40 43 42 42 40 35 32 29 27 24 22 20 19 16 18 18 18 21 22 22 23 22
30 33 31 34 32 32 36 32 32 36 30 30 29 28 28 30 25 34 36 38 38 39 40 43 43 42 40 34 30 28 25 21 19 18 16 16 19 22 21 23 26 26 28
27 30 31 29 35 36 27 36 35 29 27 31 34 32 29 30 32 29 38 38 36 33 39 42 43 40 38 34 32 29 24 21 18 14 14 17 20 22 21 24 23 27 33
28 27 29 30 32 28 34 35 20 23 25 28 32 34 30 30 29 35 38 37 37 35 37 38 38 36 33 30 28 26 25 23 19 15 17 16 21 23 22 22 25 19 11
30 32 28 30 26 31 30 25 27 24 28 30 31 29 28 28 30 35 41 36 32 34 35 37 36 35 31 28 23 20 20 18 15 16 19 18 20 21 22 26 25 25 29
32 32 26 28 28 26 27 31 31 30 30 30 29 29 27 29 32 34 33 34 31 35 37 39 37 34 33 29 26 23 21 18 17 16 17 19 20 22 27 29 33 33 36
33 28 26 28 29 27 26 30 32 29 30 28 28 31 26 32 31 30 31 30 29 33 37 37 37 33 30 28 25 22 18 16 15 13 14 16 20 24 26 30 30 25 22
32 25 31 29 27 25 29 29 28 28 32 27 29 28 25 31 28 23 31 28 27 28 34 35 34 32 28 24 23 19 14 14 11 11 14 18 22 27 31 30 32 27 26
27 33 30 24 25 27 24 27 32 32 31 26 28 27 26 28 24 23 34 29 26 25 29 32 34 30 25 20 17 13 10 6 8 10 15 20 25 30 35 31 30 29 29
33 26 25 28 25 24 28 35 30 29 24 26 25 21 24 22 20 24 35 28 28 30 28 33 31 27 24 19 13 8 6 6 6 10 14 22 27 34 34 33 35 34 33
29 30 30 26 25 25 31 30 26 23 20 23 20 17 16 15 18 29 32 29 33 30 36 33 29 24 20 16 12 7 4 2 5 9 15 21 27 33 33 32 34 30 25
33 25 25 24 24 26 25 24 23 19 21 21 17 13 12 12 18 27 27 31 30 33 32 30 26 23 19 15 9 6 2 1 3 9 14 20 29 30 27 27 28 30 20
25 25 22 23 25 23 23 25 19 20 25 22 15 14 13 15 21 26 27 26 30 33 32 29 28 22 17 12 8 7 5 3 6 10 14 21 27 24 24 27 25 22 15
21 20 19 21 20 19 22 20 20 25 26 27 16 15 21 16 30 32 32 36 34 35 30 26 23 20 16 13 13 10 7 4 6 9 11 21 24 21 24 25 25 22 15
22 21 21 22 19 19 22 13 14 23 23 15 17 19 26 19 30 33 34 35 36 31 27 22 22 19 16 15 12 10 6 4 6 8 13 21 22 20 22 22 22 21 14
21 24 23 20 20 22 14 15 14 12 15 11 18 24 25 25 34 33 38 35 24 24 26 23 21 17 18 16 13 10 7 6 9 9 14 20 22 19 20 21 21 20 13
19 18 20 20 19 17 16 15 15 18 7 17 21 19 26 33 32 36 31 28 25 23 23 21 18 19 19 16 12 10 7 10 10 10 13 19 23 19 20 21 21 21 20
15 17 18 19 17 10 10 13 15 12 16 18 17 20 28 31 24 20 24 27 26 24 21 20 18 19 19 15 12 10 9 10 9 10 12 18 22 21 21 22 22 21 21
14 16 14 12 7 2 7 14 17 21 19 14 21 27 27 22 20 21 22 26 23 21 20 20 19 19 16 13 11 10 10 9 9 9 11 16 20 22 21 21 21 21 20
21 17 16 16 16 17 17 19 24 24 23 25 25 26 24 23 24 23 23 21 20 21 21 20 19 16 13 12 11 10 9 7 9 10 11 14 18 21 22 21 22 22 21
23 21 18 19 19 20 21 21 23 24 24 23 25 22 23 25 25 22 22 22 22 21 19 18 17 16 13 11 10 9 9 8 8 8 9 13 16 19 20 20 20 20 18
22 22 20 20 20 20 19 20 25 25 24 22 23 22 23 21 21 22 23 23 21 19 20 19 17 14 11 10 9 9 6 5 5 6 8 11 15 17 15 18 19 19 18
22 21 21 18 18 18 21 22 22 21 20 20 21 21 19 20 22 23 23 23 22 21 19 16 14 11 8 9 8 7 4 3 6 7 8 11 11 12 13 14 15 16 17
22 21 21 22 21 19 18 18 18 19 19 19 19 19 18 18 20 21 20 19 18 17 15 13 11 8 8 9 8 6 5 4 5 7 8 10 10 9 10 11 13 14 15

GFSGL_925_spd_033.txt.gz
Wind_Speed
28 27 27 31 32 32 33 35 35 34 31 28 25 25 22 21 25 26 27 33 31 33 34 37 42 43 41 39 35 29 26 24 9 11 13 15 17 22 19 17 18 19 22
32 27 28 28 31 28 33 33 34 35 30 29 30 29 24 22 24 27 25 27 29 30 31 34 37 40 37 39 38 35 30 27 23 11 17 19 20 19 19 19 19 21 24
40 30 26 26 28 29 30 32 33 33 30 32 32 27 26 27 27 29 27 26 31 31 31 34 34 38 36 38 38 38 32 28 25 16 16 15 18 18 19 19 22 24 23
39 33 29 28 30 30 29 31 28 29 35 33 29 25 27 27 31 32 30 28 30 31 32 34 34 39 38 41 40 39 34 28 24 23 20 20 19 18 18 20 23 23 26
34 34 33 32 32 32 29 31 28 31 32 25 24 25 29 28 27 28 27 26 30 31 34 32 37 39 42 44 42 39 34 29 25 21 18 15 17 16 19 17 21 27 31
32 32 32 30 33 36 32 30 30 25 24 33 31 28 29 28 27 31 31 30 29 30 32 29 31 35 35 33 38 38 35 33 29 23 20 17 21 23 20 21 24 15 5
36 33 31 31 31 32 35 30 33 26 27 33 34 33 34 33 28 31 32 32 32 32 33 31 32 32 34 33 29 27 29 28 27 26 24 23 22 22 21 23 25 21 24
34 37 32 33 32 32 33 33 33 28 30 30 32 34 35 34 31 34 32 32 36 30 35 35 35 31 34 36 32 27 24 23 21 20 21 19 20 20 21 25 30 30 30
35 35 33 32 30 28 27 31 32 28 29 28 30 32 32 37 32 34 32 32 33 26 33 29 30 33 36 36 34 29 25 23 20 18 15 14 16 19 22 25 23 21 21
34 35 33 32 24 29 32 30 28 27 26 24 32 33 34 37 35 31 30 35 23 26 28 24 29 36 34 33 34 30 25 21 16 13 14 16 18 23 25 26 32 24 23
36 34 35 27 28 31 25 28 25 24 25 30 32 35 33 35 35 28 32 31 26 23 25 26 28 31 34 30 30 26 20 13 9 8 11 15 20 25 27 27 26 26 25
34 32 32 30 28 23 27 26 26 25 26 25 28 30 32 31 26 26 25 19 26 27 23 23 29 34 32 26 23 18 13 9 7 6 10 16 20 24 28 28 27 30 34
31 28 28 26 28 28 23 24 23 23 20 22 22 23 28 28 21 23 22 21 24 19 21 27 34 34 29 23 19 16 12 9 6 6 10 15 19 26 27 25 27 25 20
29 24 24 24 21 23 23 21 22 20 20 22 18 22 24 20 20 15 12 25 20 17 20 32 34 31 28 23 19 14 10 7 4 5 9 14 23 26 23 23 24 21 7
23 22 21 20 21 22 22 22 21 24 26 19 21 23 22 16 15 13 26 22 24 22 27 33 31 28 27 21 17 13 10 6 2 2 8 18 24 21 21 24 17 15 10
21 20 18 17 17 17 16 16 25 26 26 28 29 29 27 14 13 20 24 21 24 31 28 27 20 22 23 20 19 15 9 5 2 4 12 20 20 18 20 20 18 14 13
19 20 19 18 18 18 17 16 16 18 23 25 25 16 10 16 23 27 24 29 32 30 26 20 20 22 21 21 18 13 9 5 5 8 15 20 20 18 17 16 17 14 14
19 21 20 18 17 17 18 18 15 14 13 21 2 10 12 25 27 26 32 30 22 25 25 22 22 24 23 20 16 14 9 9 9 12 16 20 20 17 16 17 17 14 12
18 17 18 20 20 19 18 14 14 11 13 3 10 12 24 26 31 32 28 26 22 21 24 23 24 23 22 19 17 14 13 12 11 12 18 21 21 18 17 19 16 16 16
23 23 21 16 12 10 9 9 9 11 5 9 12 11 27 26 22 21 21 26 25 23 26 25 24 24 21 19 17 16 15 12 11 14 17 22 21 19 19 19 20 16 16
25 22 22 20 19 17 5 5 5 13 11 8 17 26 27 24 21 22 21 23 26 27 26 26 26 23 19 17 17 16 15 13 12 13 18 22 22 20 21 21 21 21 20
24 22 20 20 19 20 20 21 20 20 23 25 24 27 27 25 25 23 25 26 26 24 25 25 24 21 17 16 16 16 15 13 12 14 17 21 23 22 22 22 21 22 21
25 24 21 19 19 20 22 22 23 24 24 23 22 22 24 26 27 25 25 25 26 25 24 23 22 20 18 16 15 15 15 13 12 13 16 19 22 21 21 20 21 20 19
24 23 22 19 21 21 21 22 24 26 23 21 23 24 26 28 26 25 25 26 25 25 24 23 22 21 19 18 16 14 12 11 12 14 16 18 18 19 22 21 22 21 21
25 22 22 20 20 19 21 22 23 23 21 20 22 24 26 26 26 23 22 24 25 26 24 23 21 18 17 14 12 12 10 12 13 13 15 16 16 16 18 21 21 19 20
25 23 22 22 22 21 19 18 18 19 20 21 24 27 27 26 22 22 24 25 24 23 23 21 17 14 14 13 12 11 10 11 15 15 17 18 17 18 15 17 20 20 20